Flag for U.S.A. Weather past 2 weeks in Allentown, Pennsylvania, U.S.A.

Now
56 °F

Passing clouds.


Feels Like: 56 °F
Forecast: 46 / 63 °F
Wind: No wind

Location: Lehigh Valley International Airport

Current Time: Oct 20, 2014 at 10:53:49 PM

Latest Report: Oct 20, 2014 at 9:51 PM


Visibility: 10 mi

Pressure: 29.96 "Hg

Humidity: 55%

Dew point: 40 °F

Location of AllentownLocation

Historic Weather in Allentown — Graph

°F

Allentown temperature yesterday

Maximum temperature yesterday: 53 °F (at 12:51 AM)
Minimum temperature yesterday: 40 °F (at 10:51 PM)
Average temperature yesterday: 48 °F

Past Weeks' High & Low Weather Summary

 TemperatureHumidityPressure
High79 °F (Oct 14, 3:51 PM)100% (Oct 11, 11:55 PM)30.32 "Hg (Oct 11, 11:55 PM)
Low33 °F (Oct 20, 6:51 AM)31% (Oct 9, 12:51 PM)29.59 "Hg (Oct 18, 5:51 AM)
Average58 °F69%29.98 "Hg
* Reported Oct 5 9:51 PM — Oct 20 9:51 PM, Allentown, Weather by CustomWeather, © 2014

Note: Actual official high and low records may vary slightly from our data, if they occured in-between our weather recording intervals... More about our weather records

Advertising

Allentown weather history for previous 24 hours

 ConditionsComfort  
Time TempWeatherWind HumidityBarometerVisibility
9:51 PM
Oct 20
56 °FPassing clouds.No wind55%29.96 "Hg10 mi
8:51 PM54 °FPassing clouds.No wind57%29.96 "Hg10 mi
7:51 PM56 °FClear.3 mph51%29.96 "Hg10 mi
6:51 PM57 °FSunny.6 mph51%29.96 "Hg10 mi
5:51 PM59 °FPassing clouds.10 mph48%29.96 "Hg10 mi
4:51 PM59 °FSunny.13 mph46%29.96 "Hg10 mi
3:51 PM61 °FSunny.13 mph41%29.97 "Hg10 mi
2:51 PM59 °FSunny.9 mph44%29.98 "Hg10 mi
1:51 PM56 °FSunny.9 mph49%30.02 "Hg10 mi
12:51 PM54 °FSunny.7 mph49%30.06 "Hg10 mi
11:51 AM51 °FSunny.9 mph50%30.10 "Hg10 mi
10:51 AM47 °FSunny.3 mph56%30.11 "Hg10 mi
9:51 AM44 °FSunny.No wind68%30.12 "Hg10 mi
8:51 AM38 °FSunny.No wind83%30.13 "Hg10 mi
7:51 AM35 °FClear.No wind88%30.11 "Hg10 mi
6:51 AM33 °FClear.No wind85%30.10 "Hg10 mi
5:51 AM34 °FClear.No wind82%30.10 "Hg10 mi
4:51 AM36 °FClear.No wind82%30.10 "Hg10 mi
3:51 AM37 °FClear.No wind79%30.10 "Hg10 mi
2:51 AM38 °FClear.No wind79%30.09 "Hg10 mi
1:51 AM40 °FClear.No wind65%30.09 "Hg10 mi
12:51 AM36 °FClear.3 mph75%30.09 "Hg10 mi
10:51 PM
Oct 19
40 °FClear.No wind63%30.09 "Hg10 mi
Weather by CustomWeather, © 2014

See weather overviewHow to use our weather pages